FW6014 Weather Reports


Display with metric or nautical units.
time (UTC)temp
F
wind
direction
speed
MPH
gust
MPH
rain 1hr
in
rain 24hr
in
rain mn
in
humidity
%
barometer
mb
20260903144003 61 269 1.0 5.0 0.00 0.29 0.29 93 1016.7
20260903143502 61 269 1.0 6.0 0.00 0.29 0.29 92 1016.7
20260903143125 61 269 1.0 6.0 0.00 0.28 0.00 92 1016.6
20260903143001 61 269 0.0 6.0 0.00 0.29 0.29 92 1016.7
20260903142501 61 269 1.0 3.0 0.00 0.29 0.29 94 1016.7
20260903142002 61 269 1.0 3.0 0.00 0.29 0.29 94 1016.7
20260903141517 60 269 0.0 3.0 0.00 0.28 0.00 94 1016.7
20260903141502 61 269 1.0 3.0 0.00 0.29 0.29 94 1016.8
20260903141002 60 269 1.0 4.0 0.00 0.29 0.29 94 1016.9
20260903140502 60 269 1.0 5.0 0.00 0.29 0.29 94 1016.9
20260903140112 59 269 1.0 5.0 0.00 0.28 0.00 94 1016.8
20260903140001 60 269 0.0 5.0 0.00 0.29 0.29 95 1017.0
20260903135502 60 269 0.0 1.0 0.00 0.29 0.29 95 1017.0
20260903134958 59 269 0.0 4.0 0.00 0.29 0.29 95 1017.0
20260903134509 59 269 0.0 4.0 0.00 0.28 0.00 95 1016.9
20260903134500 59 269 1.0 4.0 0.00 0.29 0.29 95 1017.0
20260903133958 59 269 1.0 3.0 0.00 0.29 0.29 95 1017.0
20260903133500 59 269 0.0 3.0 0.00 0.29 0.29 95 1017.0
20260903132458 59 269 0.0 2.0 0.00 0.29 0.29 96 1017.1
20260903131507 58 269 0.0 3.0 0.00 0.28 0.00 96 1017.1
20260903131459 58 269 0.0 3.0 0.00 0.29 0.29 96 1017.3
20260903130959 58 269 0.0 3.0 0.00 0.29 0.29 96 1017.2
20260903130457 58 269 0.0 0.0 0.00 0.29 0.29 96 1017.3
20260903125458 58 269 0.0 0.0 0.00 0.29 0.29 96 1017.4
20260903124957 58 269 0.0 0.0 0.00 0.29 0.29 95 1017.4
20260903124506 57 269 0.0 0.0 0.00 0.28 0.00 95 1017.4
20260903124456 58 269 0.0 0.0 0.00 0.29 0.29 95 1017.5
20260903123956 58 269 0.0 0.0 0.00 0.29 0.29 95 1017.5
20260903123501 58 269 0.0 0.0 0.00 0.29 0.29 95 1017.4
20260903122457 58 269 0.0 1.0 0.00 0.29 0.29 95 1017.5
20260903121957 57 269 0.0 2.0 0.00 0.29 0.29 94 1017.5
20260903121514 57 269 0.0 1.0 0.00 0.28 0.00 94 1017.4
20260903121457 57 269 0.0 1.0 0.00 0.29 0.29 94 1017.5
20260903120952 57 269 0.0 2.0 0.00 0.29 0.29 94 1017.5
20260903120453 58 269 0.0 2.0 0.00 0.29 0.29 94 1017.7
20260903120119 57 269 0.0 2.0 0.00 0.28 0.00 94 1017.4
20260903115953 57 269 0.0 2.0 0.00 0.29 0.29 94 1017.5
20260903114954 57 269 0.0 3.0 0.00 0.29 0.29 94 1017.5
20260903113954 58 270 0.0 4.0 0.01 0.29 0.29 94 1017.8
20260903113454 58 270 1.0 5.0 0.02 0.29 0.29 94 1017.5
20260903113053 57 270 0.0 5.0 0.02 0.28 0.00 94 1017.4
20260903112953 58 270 1.0 5.0 0.02 0.29 0.29 94 1017.5
20260903112452 58 270 1.0 4.0 0.02 0.29 0.29 94 1017.7
20260903111948 58 270 1.0 4.0 0.02 0.29 0.29 94 1017.9
20260903111650 57 270 0.0 3.0 0.02 0.28 0.00 95 1017.7
20260903111448 58 270 0.0 3.0 0.02 0.29 0.29 95 1017.9
20260903110945 58 270 1.0 3.0 0.02 0.29 0.29 95 1017.9
20260903110042 57 270 2.0 6.0 0.03 0.28 0.28 95 1017.6
20260903105946 58 270 1.0 6.0 0.03 0.29 0.29 95 1017.9
20260903105444 58 270 1.0 6.0 0.03 0.29 0.29 95 1017.8
20260903104944 58 270 1.0 5.0 0.03 0.29 0.29 95 1017.9
20260903104639 57 270 1.0 5.0 0.03 0.28 0.28 95 1017.7
20260903104446 58 270 1.0 5.0 0.03 0.29 0.29 95 1017.9
20260903103945 58 270 1.0 3.0 0.02 0.28 0.27 95 1017.8
20260903103442 58 270 1.0 5.0 0.01 0.27 0.27 95 1017.8
20260903103032 57 270 0.0 5.0 0.01 0.27 0.27 95 1017.5
20260903102943 58 270 1.0 5.0 0.01 0.27 0.27 95 1017.7
20260903101944 58 270 1.0 4.0 0.01 0.27 0.27 95 1017.5
20260903101631 57 270 1.0 4.0 0.01 0.27 0.27 95 1017.2
20260903101442 58 270 1.0 4.0 0.01 0.27 0.27 95 1017.4
20260903100444 58 270 0.0 3.0 0.02 0.27 0.26 95 1017.4
20260903100032 57 270 0.0 4.0 0.01 0.26 0.26 95 1017.3
20260903095938 58 270 1.0 4.0 0.01 0.26 0.26 95 1017.5
20260903095439 58 270 0.0 2.0 0.01 0.26 0.26 95 1017.4
20260903094939 58 270 0.0 2.0 0.01 0.26 0.26 95 1017.7
20260903094630 57 270 0.0 5.0 0.02 0.26 0.26 94 1017.4
20260903094439 58 270 1.0 5.0 0.02 0.26 0.26 94 1017.7
20260903093940 58 270 1.0 5.0 0.03 0.26 0.26 94 1017.7
20260903093438 58 270 1.0 4.0 0.04 0.26 0.26 94 1017.4
20260903093032 58 270 0.0 3.0 0.06 0.26 0.26 95 1017.2
20260903092938 58 270 1.0 4.0 0.06 0.26 0.26 95 1017.4
20260903092439 58 270 1.0 4.0 0.08 0.26 0.26 95 1017.5
20260903091935 58 270 1.0 4.0 0.10 0.26 0.26 94 1017.4
20260903091630 58 270 1.0 4.0 0.10 0.26 0.26 94 1017.3
20260903091434 58 270 2.0 4.0 0.10 0.26 0.26 94 1017.5
20260903090935 58 270 2.0 8.0 0.10 0.25 0.25 93 1017.7
20260903090435 59 270 2.0 8.0 0.11 0.25 0.25 94 1017.9
20260903090033 58 270 1.0 6.0 0.11 0.25 0.25 94 1017.6
20260903085934 59 270 2.0 6.0 0.11 0.25 0.25 95 1017.8
20260903085434 59 270 2.0 8.0 0.11 0.25 0.25 95 1017.9
20260903084930 59 270 2.0 8.0 0.11 0.25 0.25 95 1018.0
20260903084629 58 270 2.0 8.0 0.10 0.24 0.24 95 1017.8
20260903084429 59 270 1.0 7.0 0.10 0.24 0.24 95 1018.1
20260903083927 59 270 2.0 7.0 0.10 0.23 0.23 95 1018.2
20260903083426 59 270 2.0 5.0 0.09 0.22 0.22 95 1018.2
20260903083025 58 270 1.0 6.0 0.08 0.20 0.20 95 1018.1
20260903082924 59 270 1.0 6.0 0.08 0.20 0.20 95 1018.3
20260903082423 59 270 1.0 6.0 0.06 0.18 0.17 95 1018.3
20260903081917 59 270 1.0 4.0 0.04 0.16 0.16 95 1018.4
20260903081615 58 270 0.0 4.0 0.04 0.16 0.16 95 1018.2
20260903081411 59 270 1.0 5.0 0.04 0.16 0.15 95 1018.4
20260903080904 59 270 1.0 5.0 0.04 0.15 0.15 95 1018.2
20260903080404 59 270 0.0 4.0 0.04 0.14 0.14 96 1018.2
20260903080128 58 270 1.0 3.0 0.05 0.14 0.14 96 1018.2
20260903075404 59 270 1.0 3.0 0.06 0.14 0.14 96 1018.5
20260903074902 59 270 1.0 3.0 0.07 0.14 0.14 96 1018.4
20260903074637 58 270 1.0 3.0 0.07 0.14 0.14 96 1018.2
20260903074401 59 270 1.0 3.0 0.07 0.14 0.14 95 1018.3
20260903073902 59 270 1.0 3.0 0.07 0.13 0.13 95 1018.4
20260903073401 59 270 1.0 5.0 0.07 0.13 0.13 95 1018.3
20260903073153 58 270 0.0 5.0 0.07 0.13 0.13 95 1018.1
20260903072901 59 270 1.0 5.0 0.06 0.12 0.12 95 1018.3
20260903072403 59 270 1.0 4.0 0.06 0.12 0.12 95 1018.5
20260903071902 58 270 1.0 6.0 0.06 0.12 0.12 95 1018.5
20260903071634 58 270 0.0 6.0 0.06 0.12 0.12 95 1018.2
20260903070902 58 270 2.0 7.0 0.05 0.11 0.11 95 1018.6
20260903070403 59 270 1.0 7.0 0.05 0.10 0.10 95 1018.7
20260903070143 58 270 1.0 4.0 0.05 0.10 0.10 95 1018.5
20260903065902 58 270 1.0 6.0 0.05 0.09 0.09 95 1018.7
20260903065401 58 270 2.0 6.0 0.04 0.08 0.07 95 1019.0
20260903064902 58 270 1.0 5.0 0.03 0.07 0.07 95 1019.0
20260903064542 58 270 1.0 4.0 0.03 0.07 0.07 95 1018.8
20260903064402 58 270 1.0 4.0 0.03 0.07 0.07 95 1019.1
20260903063902 58 270 1.0 4.0 0.02 0.06 0.06 95 1019.1
20260903063401 58 270 0.0 3.0 0.03 0.06 0.06 95 1019.3
20260903063136 58 270 0.0 2.0 0.03 0.06 0.06 95 1019.0
20260903062902 58 270 1.0 2.0 0.03 0.06 0.06 95 1019.3
20260903062402 58 270 1.0 3.0 0.03 0.06 0.06 95 1019.3
20260903061902 58 270 1.0 3.0 0.03 0.06 0.06 95 1019.4
20260903061533 58 270 0.0 4.0 0.04 0.06 0.06 95 1019.2
20260903061401 58 270 0.0 4.0 0.04 0.06 0.06 95 1019.4
20260903060401 58 270 1.0 5.0 0.03 0.05 0.05 95 1019.4
20260903060117 58 270 0.0 4.0 0.04 0.05 0.05 95 1019.3
20260903055902 58 270 1.0 5.0 0.03 0.04 0.04 95 1019.6
20260903054902 58 270 0.0 2.0 0.03 0.04 0.04 94 1019.8
20260903054516 58 270 0.0 2.0 0.04 0.04 0.04 94 1019.5
20260903054359 58 270 0.0 2.0 0.04 0.04 0.04 94 1019.8
20260903053849 58 270 0.0 3.0 0.04 0.04 0.04 94 1019.8
20260903053102 58 270 0.0 6.0 0.03 0.03 0.03 94 1019.6
20260903052838 58 270 1.0 6.0 0.03 0.03 0.03 94 1019.8
20260903052338 58 270 1.0 3.0 0.03 0.03 0.03 94 1019.9
20260903051839 58 270 1.0 5.0 0.03 0.03 0.02 93 1020.1
20260903051501 58 270 0.0 5.0 0.02 0.02 0.02 93 1019.9
20260903051337 58 270 1.0 5.0 0.02 0.02 0.02 93 1020.1
20260903050835 58 270 1.0 5.0 0.02 0.02 0.02 92 1020.1
20260903045832 59 270 1.0 4.0 0.01 0.01 0.01 92 1020.4
20260903045332 59 270 1.0 4.0 0.01 0.01 0.01 92 1020.5
20260903044831 59 270 1.0 4.0 0.01 0.01 0.01 91 1020.4
20260903044502 58 270 1.0 4.0 0.00 0.00 0.00 91 1020.2
20260903044330 59 270 1.0 4.0 0.00 0.00 0.00 90 1020.4
20260903043829 59 270 0.0 5.0 0.00 0.00 0.00 91 1020.3
20260903043329 59 270 0.0 5.0 0.00 0.00 0.00 91 1020.4
20260903043101 59 270 0.0 5.0 0.00 0.00 0.00 91 1020.2
20260903042829 59 270 0.0 4.0 0.00 0.00 0.00 91 1020.4
20260903042330 59 270 1.0 4.0 0.00 0.00 0.00 90 1020.4
20260903041831 59 270 1.0 5.0 0.00 0.00 0.00 91 1020.4
20260903041503 59 270 1.0 5.0 0.00 0.00 0.00 90 1020.3
20260903041330 59 270 1.0 5.0 0.00 0.00 0.00 90 1020.5
20260903040831 60 270 1.0 3.0 0.00 0.00 0.00 90 1020.6
20260903040330 60 270 1.0 3.0 0.00 0.00 0.00 90 1020.6
20260903040056 59 270 0.0 3.0 0.00 0.00 0.00 90 1020.4
20260903035830 60 270 1.0 5.0 0.00 0.00 0.00 90 1020.7
20260903035329 60 270 2.0 5.0 0.00 0.00 0.00 89 1020.7
20260903034830 60 270 2.0 6.0 0.00 0.00 0.00 89 1020.9
20260903034648 60 270 1.0 6.0 0.00 0.00 0.00 89 1020.7
20260903034331 60 270 2.0 6.0 0.00 0.00 0.00 89 1021.0
20260903033829 60 270 2.0 6.0 0.00 0.00 0.00 89 1021.0
20260903033328 60 270 2.0 6.0 0.00 0.00 0.00 89 1020.9
20260903033043 59 270 1.0 6.0 0.00 0.00 0.00 89 1020.8
20260903032829 60 270 1.0 6.0 0.00 0.00 0.00 89 1021.0
20260903032330 60 270 1.0 7.0 0.00 0.00 0.00 89 1020.9
20260903031641 59 270 1.0 7.0 0.00 0.00 0.00 89 1020.8
20260903031330 60 270 1.0 6.0 0.00 0.00 0.00 89 1021.1
20260903030831 60 270 1.0 4.0 0.00 0.00 0.00 89 1021.1
20260903030330 60 270 1.0 3.0 0.00 0.00 0.00 89 1021.2
20260903030039 59 270 0.0 3.0 0.00 0.00 0.00 89 1021.1
20260903025829 60 270 0.0 3.0 0.00 0.00 0.00 89 1021.2
20260903025328 60 270 0.0 2.0 0.00 0.00 0.00 88 1021.2
20260903024831 60 270 0.0 3.0 0.00 0.00 0.00 88 1021.3
20260903024638 60 270 0.0 3.0 0.00 0.00 0.00 88 1021.1
20260903024330 60 270 0.0 3.0 0.00 0.00 0.00 88 1021.2
20260903023829 60 270 0.0 5.0 0.00 0.00 0.00 87 1021.3
20260903023034 60 270 1.0 5.0 0.00 0.00 0.00 87 1021.0
20260903022829 60 270 0.0 3.0 0.00 0.00 0.00 87 1021.3
20260903022329 60 270 0.0 3.0 0.00 0.00 0.00 87 1021.5
20260903021632 60 270 0.0 1.0 0.00 0.00 0.00 87 1021.5
20260903021330 60 270 0.0 2.0 0.00 0.00 0.00 87 1021.8
20260903020330 60 270 0.0 1.0 0.00 0.00 0.00 87 1022.0
20260903020105 60 270 0.0 1.0 0.00 0.00 0.00 88 1021.7
20260903015323 60 270 0.0 1.0 0.00 0.00 0.00 88 1021.9
20260903014817 60 270 0.0 1.0 0.00 0.00 0.00 87 1021.8
20260903014626 60 270 0.0 1.0 0.00 0.00 0.00 88 1021.4
20260903014315 60 270 0.0 1.0 0.00 0.00 0.00 87 1021.5
20260903013312 60 270 0.0 2.0 0.00 0.00 0.00 88 1021.4
20260903013004 60 270 0.0 2.0 0.00 0.00 0.00 89 1021.1
20260903012811 61 270 0.0 2.0 0.00 0.00 0.00 89 1021.3
20260903012310 61 270 0.0 2.0 0.00 0.00 0.00 88 1021.2
20260903011809 61 270 0.0 1.0 0.00 0.00 0.00 87 1021.2
20260903011620 60 270 0.0 1.0 0.00 0.00 0.00 87 1021.0
20260903011310 61 270 0.0 1.0 0.00 0.00 0.00 87 1021.3
20260903010809 61 270 0.0 1.0 0.00 0.00 0.00 87 1021.4
20260903010309 61 270 0.0 2.0 0.00 0.00 0.00 87 1021.5
20260903010158 60 270 0.0 2.0 0.00 0.00 0.00 87 1021.3
20260903005809 61 270 0.0 2.0 0.00 0.00 0.00 87 1021.8
20260903005309 61 270 0.0 1.0 0.00 0.00 0.00 87 1021.8
20260903004809 61 270 0.0 1.0 0.00 0.00 0.00 86 1021.4
20260903004605 61 270 0.0 1.0 0.00 0.00 0.00 87 1021.1
20260903004308 61 270 0.0 1.0 0.00 0.00 0.00 86 1021.5
20260903003809 61 270 0.0 2.0 0.00 0.00 0.00 86 1021.5
20260903003309 61 270 0.0 3.0 0.00 0.00 0.00 86 1021.8
20260903003154 61 270 0.0 3.0 0.00 0.00 0.00 87 1021.5
20260903002807 61 270 0.0 3.0 0.00 0.00 0.00 86 1021.6
20260903002306 61 270 0.0 1.0 0.00 0.00 0.00 86 1021.5
20260903001807 61 270 0.0 1.0 0.00 0.00 0.00 86 1021.5
20260903001601 61 270 0.0 1.0 0.00 0.00 0.00 86 1021.4
20260903001303 61 270 0.0 2.0 0.00 0.00 0.00 85 1021.6
20260903000801 62 270 0.0 4.0 0.00 0.00 0.00 85 1021.6
20260903000303 62 270 0.0 4.0 0.00 0.00 0.00 85 1021.6
20260903000035 61 270 0.0 2.0 0.00 0.00 0.00 84 1021.4
20260902235305 62 270 0.0 2.0 0.00 0.00 0.00 84 1021.6
20260902234800 62 270 0.0 2.0 0.00 0.00 0.00 83 1021.8
20260902234551 61 270 0.0 2.0 0.00 0.00 0.00 83 1021.4
20260902234302 62 270 0.0 2.0 0.00 0.00 0.00 83 1021.6
20260902233301 62 270 1.0 4.0 0.00 0.00 0.00 82 1021.9
20260902233149 62 270 0.0 4.0 0.00 0.00 0.00 82 1021.5
20260902232800 62 270 1.0 4.0 0.00 0.00 0.00 81 1022.0
20260902232301 62 270 1.0 4.0 0.00 0.00 0.00 81 1022.1
20260902231800 62 270 0.0 4.0 0.00 0.00 0.00 81 1022.2
20260902231542 62 270 0.0 3.0 0.00 0.00 0.00 81 1021.9
20260902231302 62 270 0.0 2.0 0.00 0.00 0.00 81 1022.3
20260902230802 62 270 1.0 3.0 0.00 0.00 0.00 80 1022.3
20260902230131 62 270 0.0 4.0 0.00 0.00 0.00 79 1022.0
20260902225801 62 270 1.0 5.0 0.00 0.00 0.00 79 1022.4
20260902225301 62 270 1.0 5.0 0.00 0.00 0.00 79 1022.4
20260902224801 63 270 0.0 3.0 0.00 0.00 0.00 79 1022.7
20260902224531 62 270 0.0 3.0 0.00 0.00 0.00 80 1022.4
20260902224302 63 270 0.0 3.0 0.00 0.00 0.00 80 1022.7
20260902223802 63 270 0.0 2.0 0.00 0.00 0.00 79 1022.6
20260902223038 63 270 0.0 2.0 0.00 0.00 0.00 80 1022.2
20260902222301 63 270 0.0 2.0 0.00 0.00 0.00 80 1022.7
20260902221528 63 270 0.0 1.0 0.00 0.00 0.00 80 1022.3
20260902221301 63 270 0.0 1.0 0.00 0.00 0.00 81 1022.7
20260902220802 63 270 0.0 2.0 0.00 0.00 0.00 81 1023.0
20260902220119 63 270 0.0 1.0 0.00 0.00 0.00 80 1022.6
20260902215803 64 270 0.0 2.0 0.00 0.00 0.00 81 1022.8
20260902215306 64 270 0.0 3.0 0.00 0.00 0.00 79 1022.9
20260902214803 64 270 0.0 3.0 0.00 0.00 0.00 81 1022.7
20260902214517 63 270 0.0 3.0 0.00 0.00 0.00 80 1022.3
20260902214300 64 270 0.0 1.0 0.00 0.00 0.00 82 1022.6
20260902213801 64 270 0.0 1.0 0.00 0.00 0.00 81 1022.7
20260902213301 64 270 0.0 0.0 0.00 0.00 0.00 82 1022.6
20260902213104 64 270 0.0 0.0 0.00 0.00 0.00 82 1022.4
20260902212802 64 270 0.0 0.0 0.00 0.00 0.00 83 1022.8
20260902212301 64 270 0.0 1.0 0.00 0.00 0.00 81 1022.8
20260902211501 63 270 0.0 1.0 0.00 0.00 0.00 80 1022.6
20260902211302 64 270 0.0 1.0 0.00 0.00 0.00 80 1023.1
20260902210800 64 270 0.0 1.0 0.00 0.00 0.00 81 1023.1
20260902210301 64 270 0.0 2.0 0.00 0.00 0.00 78 1023.3
20260902210029 64 270 0.0 3.0 0.00 0.00 0.00 79 1022.8
20260902205301 64 270 1.0 4.0 0.00 0.00 0.00 78 1023.3
20260902204801 64 270 0.0 4.0 0.00 0.00 0.00 78 1023.3
20260902204505 64 270 0.0 1.0 0.00 0.00 0.00 83 1022.9
20260902204302 65 270 0.0 1.0 0.00 0.00 0.00 81 1023.3
20260902203800 65 270 0.0 1.0 0.00 0.00 0.00 83 1023.4
20260902203303 65 270 0.0 1.0 0.00 0.00 0.00 82 1023.5
20260902203028 64 270 0.0 2.0 0.00 0.00 0.00 82 1023.1
20260902202306 65 270 0.0 2.0 0.00 0.00 0.00 81 1023.5
20260902201802 65 270 0.0 2.0 0.00 0.00 0.00 81 1023.5
20260902201502 65 270 0.0 2.0 0.00 0.00 0.00 80 1023.1
20260902201300 65 270 0.0 2.0 0.00 0.00 0.00 81 1023.6
20260902200802 65 270 0.0 2.0 0.00 0.00 0.00 82 1023.5
20260902200301 65 270 0.0 4.0 0.00 0.00 0.00 82 1023.6
20260902195803 66 270 1.0 4.0 0.00 0.00 0.00 79 1023.5
20260902195306 66 270 0.0 2.0 0.00 0.00 0.00 79 1023.5
20260902194803 66 270 0.0 3.0 0.00 0.00 0.00 79 1023.5
20260902194659 66 270 0.0 3.0 0.00 0.00 0.00 80 1023.1
20260902194302 66 270 1.0 4.0 0.00 0.00 0.00 78 1023.5
20260902193802 66 270 0.0 4.0 0.00 0.00 0.00 79 1023.5
20260902193301 66 270 1.0 4.0 0.00 0.00 0.00 79 1023.5
20260902193055 66 270 0.0 4.0 0.00 0.00 0.00 78 1023.2
20260902193025 66 270 0.0 4.0 0.00 0.00 0.00 77 1023.3
20260902192302 66 270 1.0 3.0 0.00 0.00 0.00 78 1023.7
20260902191802 67 270 0.0 2.0 0.00 0.00 0.00 79 1023.6
20260902191541 66 270 0.0 2.0 0.00 0.00 0.00 79 1023.3
20260902190801 66 270 0.0 2.0 0.00 0.00 0.00 80 1023.7
20260902190301 66 270 0.0 3.0 0.00 0.00 0.00 80 1023.8
20260902190029 66 270 0.0 3.0 0.00 0.00 0.00 80 1023.5
20260902185801 66 270 0.0 3.0 0.00 0.00 0.00 79 1023.7
20260902185301 66 270 0.0 2.0 0.00 0.00 0.00 80 1023.8
20260902184802 66 270 1.0 4.0 0.00 0.00 0.00 80 1023.9
20260902184631 65 270 0.0 4.0 0.00 0.00 0.00 79 1023.4
20260902184301 65 270 1.0 4.0 0.00 0.00 0.00 79 1023.8
20260902183803 65 270 1.0 4.0 0.00 0.00 0.00 79 1023.9
20260902183302 65 270 0.0 3.0 0.00 0.00 0.00 81 1024.1
20260902183030 65 270 0.0 4.0 0.00 0.00 0.00 82 1023.7
20260902182802 65 270 1.0 5.0 0.00 0.00 0.00 83 1024.1
20260902182306 65 270 1.0 5.0 0.00 0.00 0.00 82 1024.1
20260902181530 64 270 0.0 4.0 0.00 0.00 0.00 82 1023.7
20260902180802 65 270 1.0 5.0 0.00 0.00 0.00 84 1024.1
20260902180301 65 270 0.0 5.0 0.00 0.00 0.00 83 1024.1
20260902180008 64 270 0.0 3.0 0.00 0.00 0.00 83 1023.6
20260902175802 65 270 1.0 3.0 0.00 0.00 0.00 84 1024.0
20260902175301 65 270 0.0 3.0 0.00 0.00 0.00 83 1024.0
20260902174605 64 270 0.0 1.0 0.00 0.00 0.00 85 1023.8
20260902174302 65 270 0.0 1.0 0.00 0.00 0.00 85 1024.2
20260902173302 65 270 0.0 2.0 0.00 0.00 0.00 84 1024.1
20260902173002 64 270 0.0 0.0 0.00 0.00 0.00 86 1023.7
20260902172802 65 270 0.0 1.0 0.00 0.00 0.00 86 1024.1
20260902172301 65 270 0.0 1.0 0.00 0.00 0.00 84 1024.1
20260902171800 65 270 0.0 1.0 0.00 0.00 0.00 84 1024.0
20260902171604 64 270 0.0 1.0 0.00 0.00 0.00 83 1023.6
20260902171301 65 270 0.0 1.0 0.00 0.00 0.00 84 1024.0
20260902170259 65 270 0.0 1.0 0.00 0.00 0.00 83 1023.9
20260902170002 64 270 0.0 2.0 0.00 0.00 0.00 83 1023.6
20260902165758 65 270 0.0 2.0 0.00 0.00 0.00 83 1024.0
20260902165258 65 270 0.0 3.0 0.00 0.00 0.00 82 1024.0
20260902164609 65 270 0.0 3.0 0.00 0.00 0.00 82 1023.6
20260902164252 65 270 0.0 3.0 0.00 0.00 0.00 82 1024.0
20260902163745 65 270 0.0 3.0 0.00 0.00 0.00 81 1023.9
20260902163238 65 270 0.0 3.0 0.00 0.00 0.00 82 1024.0
20260902163003 65 270 0.0 3.0 0.00 0.00 0.00 81 1023.7
20260902162739 65 270 0.0 3.0 0.00 0.00 0.00 81 1024.2
20260902162239 65 270 0.0 1.0 0.00 0.00 0.00 82 1024.4
20260902161740 65 270 0.0 2.0 0.00 0.00 0.00 82 1024.5
20260902161605 65 270 0.0 2.0 0.00 0.00 0.00 82 1024.1
20260902161236 65 270 0.0 2.0 0.00 0.00 0.00 81 1024.5
20260902160738 65 270 0.0 3.0 0.00 0.00 0.00 82 1024.5
20260902160235 65 270 0.0 3.0 0.00 0.00 0.00 81 1024.6
20260902160157 64 270 0.0 3.0 0.00 0.00 0.00 82 1024.2
20260902155736 65 270 1.0 3.0 0.00 0.00 0.00 82 1024.6
20260902155233 65 270 1.0 4.0 0.00 0.00 0.00 81 1024.6
20260902154554 64 270 0.0 5.0 0.00 0.00 0.00 82 1024.3
20260902154501 64 270 0.0 5.0 0.00 0.00 0.00 83 1024.3
20260902153732 65 270 1.0 4.0 0.00 0.00 0.00 81 1024.7
20260902153150 64 270 0.0 5.0 0.00 0.00 0.00 81 1024.3
20260902152728 65 270 1.0 5.0 0.00 0.00 0.00 82 1024.6
20260902152229 64 270 1.0 5.0 0.00 0.00 0.00 82 1024.6
20260902151731 65 270 1.0 6.0 0.00 0.00 0.00 83 1024.6
20260902151553 64 270 1.0 6.0 0.00 0.00 0.00 81 1024.2
20260902151230 65 270 1.0 6.0 0.00 0.00 0.00 81 1024.5
20260902150728 65 270 1.0 5.0 0.00 0.00 0.00 84 1024.4
20260902150148 64 270 1.0 4.0 0.00 0.00 0.00 83 1024.0
20260902145729 64 270 1.0 5.0 0.00 0.00 0.00 84 1024.4
20260902145231 64 270 1.0 6.0 0.00 0.00 0.00 85 1024.4
20260902144729 63 270 1.0 6.0 0.00 0.00 0.00 87 1024.3
20260902144549 62 270 0.0 3.0 0.00 0.00 0.00 88 1024.0